User: anonymous   Login
Location: Holmes Observatory
(37.1039°N, 122.0513°W)
Time: 22:10:08
(UTC-08:00)
Language:

Cosmos 921 Rocket - Orbit

View from above orbital plane
View from above orbital plane
View from above satellite
View from above satellite

Ground track
Ground track

The orbit data is extracted from the following two-line orbital elements,

1 10096U 77055B   17323.49254435  .00000122  00000-0  15105-4 0  9993
2 10096  75.8350  83.7625 0042472 172.0265 188.1611 14.88591534185355
Epoch (UTC): 19 November 2017 11:49:15
Eccentricity: 0.0042472
inclination: 75.8350°
perigee height: 572 km
apogee height: 632 km
right ascension of ascending node: 83.7625°
argument of perigee: 172.0265°
revolutions per day: 14.88591534
mean anomaly at epoch: 188.1611°
orbit number at epoch: 18535

The dashed part of the orbit path shows where the satellite is in the earth's shadow,  

DLR